^^
Station Historical Data
Daily Summary for February 8, 2021 Units:  English    Metric   Both
Daily Weekly Monthly Yearly
  High: Low: Average:
Temperature: 16.1 °F 6.2 °F 11.8 °F
Dew Point: 10.9 °F 0.3 °F 6.2 °F
Humidity: 86% 71% 78%
Wind Speed: 8mph 0mph 4.4mph
Wind Gust: 11mph - -
Wind- - SW
Pressure: 30.36 in 30.27 in -
Precipitation: 0.00 in    
 
 
Tabular Data for February 8, 2021
Time Temperature Dew Point Pressure Wind Wind Speed Wind Gust Humidity Rainfall Rate (Hourly) solar
00:00 6.3 °F 0.3 °F 30.27 in West 4 mph 6 mph 76% 0.00 in 0 W/m2
00:05 6.2 °F 0.3 °F 30.28 in West 4 mph 6 mph 76% 0.00 in 0 W/m2
00:10 6.2 °F 0.3 °F 30.28 in WSW 4 mph 4 mph 76% 0.00 in 0 W/m2
00:15 6.3 °F 0.3 °F 30.27 in WSW 3 mph 4 mph 76% 0.00 in 0 W/m2
00:20 6.3 °F 0.3 °F 30.28 in SW 3 mph 3 mph 76% 0.00 in 0 W/m2
00:25 6.4 °F 0.4 °F 30.28 in WNW 3 mph 3 mph 76% 0.00 in 0 W/m2
00:30 6.5 °F 0.5 °F 30.28 in WNW 4 mph 4 mph 76% 0.00 in 0 W/m2
00:35 6.7 °F 0.7 °F 30.28 in West 4 mph 4 mph 76% 0.00 in 0 W/m2
00:40 6.7 °F 0.7 °F 30.28 in WSW 4 mph 4 mph 76% 0.00 in 0 W/m2
00:45 6.8 °F 0.8 °F 30.28 in WSW 4 mph 4 mph 76% 0.00 in 0 W/m2
00:50 6.7 °F 0.7 °F 30.28 in WSW 4 mph 4 mph 76% 0.00 in 0 W/m2
00:55 6.6 °F 0.6 °F 30.28 in West 4 mph 4 mph 76% 0.00 in 0 W/m2
01:00 6.7 °F 0.7 °F 30.28 in West 4 mph 7 mph 76% 0.00 in 0 W/m2
01:05 6.6 °F 0.6 °F 30.29 in West 4 mph 7 mph 76% 0.00 in 0 W/m2
01:10 6.7 °F 0.7 °F 30.29 in West 4 mph 9 mph 76% 0.00 in 0 W/m2
01:15 6.7 °F 0.7 °F 30.29 in WSW 4 mph 9 mph 76% 0.00 in 0 W/m2
01:20 6.6 °F 0.9 °F 30.30 in West 5 mph 5 mph 77% 0.00 in 0 W/m2
01:25 6.6 °F 0.9 °F 30.30 in West 5 mph 6 mph 77% 0.00 in 0 W/m2
01:30 6.7 °F 1 °F 30.30 in WSW 5 mph 5 mph 77% 0.00 in 0 W/m2
01:35 6.6 °F 0.9 °F 30.30 in WSW 5 mph 5 mph 77% 0.00 in 0 W/m2
01:40 6.6 °F 1.2 °F 30.30 in SSW 4 mph 5 mph 78% 0.00 in 0 W/m2
01:45 6.6 °F 1.2 °F 30.30 in WNW 4 mph 9 mph 78% 0.00 in 0 W/m2
01:50 6.6 °F 1.2 °F 30.30 in West 5 mph 11 mph 78% 0.00 in 0 W/m2
01:55 6.5 °F 1.1 °F 30.30 in West 5 mph 11 mph 78% 0.00 in 0 W/m2
02:00 6.5 °F 1.1 °F 30.30 in WNW 5 mph 6 mph 78% 0.00 in 0 W/m2
02:05 6.5 °F 1.4 °F 30.31 in West 4 mph 6 mph 79% 0.00 in 0 W/m2
02:10 6.6 °F 1.5 °F 30.31 in West 4 mph 7 mph 79% 0.00 in 0 W/m2
02:15 6.6 °F 1.5 °F 30.31 in West 4 mph 7 mph 79% 0.00 in 0 W/m2
02:20 6.7 °F 1.6 °F 30.31 in West 4 mph 4 mph 79% 0.00 in 0 W/m2
02:25 6.7 °F 1.6 °F 30.31 in West 4 mph 4 mph 79% 0.00 in 0 W/m2
02:30 6.7 °F 1.6 °F 30.31 in West 4 mph 6 mph 79% 0.00 in 0 W/m2
02:35 6.7 °F 1.3 °F 30.31 in WSW 4 mph 7 mph 78% 0.00 in 0 W/m2
02:40 6.8 °F 1.7 °F 30.31 in West 5 mph 5 mph 79% 0.00 in 0 W/m2
02:45 6.9 °F 1.8 °F 30.30 in West 5 mph 5 mph 79% 0.00 in 0 W/m2
02:50 7 °F 1.6 °F 30.30 in WSW 3 mph 5 mph 78% 0.00 in 0 W/m2
02:55 7.1 °F 1.7 °F 30.30 in WNW 3 mph 5 mph 78% 0.00 in 0 W/m2
03:00 7.2 °F 1.8 °F 30.30 in West 3 mph 7 mph 78% 0.00 in 0 W/m2
03:05 7.2 °F 1.8 °F 30.30 in West 3 mph 7 mph 78% 0.00 in 0 W/m2
03:10 7.3 °F 1.9 °F 30.30 in NW 4 mph 4 mph 78% 0.00 in 0 W/m2
03:15 7.4 °F 1.7 °F 30.30 in West 4 mph 7 mph 77% 0.00 in 0 W/m2
03:20 7.6 °F 2.2 °F 30.30 in WSW 4 mph 4 mph 78% 0.00 in 0 W/m2
03:25 7.8 °F 2.4 °F 30.30 in SW 4 mph 5 mph 78% 0.00 in 0 W/m2
03:30 7.9 °F 2.5 °F 30.29 in SW 5 mph 5 mph 78% 0.00 in 0 W/m2
03:35 7.9 °F 2.2 °F 30.29 in West 5 mph 5 mph 77% 0.00 in 0 W/m2
03:40 8 °F 2.3 °F 30.29 in WNW 5 mph 5 mph 77% 0.00 in 0 W/m2
03:45 8 °F 2.3 °F 30.30 in West 6 mph 8 mph 77% 0.00 in 0 W/m2
03:50 8.2 °F 2.5 °F 30.30 in SW 5 mph 5 mph 77% 0.00 in 0 W/m2
03:55 8.3 °F 2.3 °F 30.31 in WSW 5 mph 5 mph 76% 0.00 in 0 W/m2
04:00 8.4 °F 2.4 °F 30.31 in WSW 6 mph 6 mph 76% 0.00 in 0 W/m2
04:05 8.5 °F 2.5 °F 30.31 in WSW 6 mph 6 mph 76% 0.00 in 0 W/m2
04:10 8.6 °F 2.6 °F 30.31 in West 7 mph 8 mph 76% 0.00 in 0 W/m2
04:15 8.7 °F 2.7 °F 30.31 in West 7 mph 10 mph 76% 0.00 in 0 W/m2
04:20 8.7 °F 2.4 °F 30.32 in West 6 mph 8 mph 75% 0.00 in 0 W/m2
04:25 8.7 °F 2.4 °F 30.32 in West 6 mph 8 mph 75% 0.00 in 0 W/m2
04:30 8.8 °F 2.5 °F 30.32 in SW 7 mph 7 mph 75% 0.00 in 0 W/m2
04:35 8.9 °F 2.6 °F 30.31 in West 6 mph 11 mph 75% 0.00 in 0 W/m2
04:40 8.9 °F 2.3 °F 30.31 in SW 6 mph 6 mph 74% 0.00 in 0 W/m2
04:45 9 °F 2.7 °F 30.31 in West 6 mph 9 mph 75% 0.00 in 0 W/m2
04:50 9 °F 2.4 °F 30.31 in WSW 6 mph 6 mph 74% 0.00 in 0 W/m2
04:55 9 °F 2.7 °F 30.31 in WSW 6 mph 8 mph 75% 0.00 in 0 W/m2
05:00 9 °F 3 °F 30.31 in WSW 5 mph 5 mph 76% 0.00 in 0 W/m2
05:05 9 °F 3 °F 30.31 in SSW 5 mph 7 mph 76% 0.00 in 0 W/m2
05:10 8.9 °F 2.9 °F 30.31 in West 5 mph 5 mph 76% 0.00 in 0 W/m2
05:15 8.9 °F 2.9 °F 30.31 in West 5 mph 5 mph 76% 0.00 in 0 W/m2
05:20 8.9 °F 2.9 °F 30.31 in SW 4 mph 4 mph 76% 0.00 in 0 W/m2
05:25 8.9 °F 3.2 °F 30.31 in West 4 mph 4 mph 77% 0.00 in 0 W/m2
05:30 8.8 °F 2.8 °F 30.31 in West 3 mph 3 mph 76% 0.00 in 0 W/m2
05:35 8.8 °F 2.5 °F 30.32 in West 4 mph 6 mph 75% 0.00 in 0 W/m2
05:40 8.7 °F 2.4 °F 30.32 in West 4 mph 4 mph 75% 0.00 in 0 W/m2
05:45 8.8 °F 2.5 °F 30.32 in West 4 mph 4 mph 75% 0.00 in 0 W/m2
05:50 8.9 °F 2.6 °F 30.32 in West 4 mph 4 mph 75% 0.00 in 0 W/m2
05:55 9 °F 2.7 °F 30.32 in WSW 5 mph 5 mph 75% 0.00 in 0 W/m2
06:00 9 °F 2.7 °F 30.32 in WNW 4 mph 4 mph 75% 0.00 in 0 W/m2
06:05 9 °F 2.7 °F 30.32 in WNW 4 mph 4 mph 75% 0.00 in 0 W/m2
06:10 9 °F 2.7 °F 30.32 in NW 4 mph 5 mph 75% 0.00 in 0 W/m2
06:15 9.1 °F 2.8 °F 30.33 in NW 4 mph 5 mph 75% 0.00 in 0 W/m2
06:20 9.1 °F 3.1 °F 30.32 in West 3 mph 7 mph 76% 0.00 in 0 W/m2
06:25 9.1 °F 3.1 °F 30.32 in WNW 4 mph 8 mph 76% 0.00 in 0 W/m2
06:30 9.1 °F 3.1 °F 30.32 in West 5 mph 5 mph 76% 0.00 in 0 W/m2
06:35 9.1 °F 3.1 °F 30.33 in WSW 4 mph 8 mph 76% 0.00 in 0 W/m2
06:40 9 °F 3 °F 30.32 in West 4 mph 4 mph 76% 0.00 in 0 W/m2
06:45 9 °F 3 °F 30.32 in West 4 mph 4 mph 76% 0.00 in 0 W/m2
06:50 9 °F 3 °F 30.32 in SW 4 mph 4 mph 76% 0.00 in 0 W/m2
06:55 9 °F 3 °F 30.32 in NW 4 mph 5 mph 76% 0.00 in 0 W/m2
07:00 9 °F 3 °F 30.32 in WNW 4 mph 4 mph 76% 0.00 in 0 W/m2
07:05 9 °F 3 °F 30.32 in NW 4 mph 4 mph 76% 0.00 in 0 W/m2
07:10 8.9 °F 2.9 °F 30.33 in WSW 3 mph 3 mph 76% 0.00 in 0 W/m2
07:15 9 °F 3 °F 30.33 in West 3 mph 3 mph 76% 0.00 in 0 W/m2
07:20 9 °F 3 °F 30.33 in WSW 4 mph 4 mph 76% 0.00 in 0 W/m2
07:25 9.1 °F 3.1 °F 30.33 in West 3 mph 6 mph 76% 0.00 in 0 W/m2
07:30 9.1 °F 3.1 °F 30.33 in WSW 3 mph 5 mph 76% 0.00 in 0 W/m2
07:35 9.1 °F 3.1 °F 30.33 in West 4 mph 5 mph 76% 0.00 in 0 W/m2
07:40 9.1 °F 3.1 °F 30.34 in WSW 4 mph 4 mph 76% 0.00 in 0 W/m2
07:45 9.2 °F 3.2 °F 30.33 in WNW 3 mph 4 mph 76% 0.00 in 5 W/m2
07:50 9.2 °F 3.4 °F 30.34 in West 3 mph 3 mph 77% 0.00 in 7 W/m2
07:55 9.2 °F 3.4 °F 30.34 in WNW 5 mph 4 mph 77% 0.00 in 9 W/m2
08:00 9.2 °F 3.4 °F 30.34 in West 5 mph 5 mph 77% 0.00 in 14 W/m2
08:05 9.2 °F 3.7 °F 30.34 in WSW 3 mph 5 mph 78% 0.00 in 21 W/m2
08:10 9.2 °F 3.7 °F 30.34 in WSW 4 mph 4 mph 78% 0.00 in 30 W/m2
08:15 9.2 °F 3.7 °F 30.35 in WSW 3 mph 4 mph 78% 0.00 in 49 W/m2
08:20 9.3 °F 3.8 °F 30.35 in West 2 mph 4 mph 78% 0.00 in 53 W/m2
08:25 9.5 °F 4.3 °F 30.35 in West 3 mph 4 mph 79% 0.00 in 65 W/m2
08:30 9.6 °F 4.4 °F 30.35 in West 3 mph 3 mph 79% 0.00 in 84 W/m2
08:35 9.8 °F 4.9 °F 30.35 in WNW 4 mph 6 mph 80% 0.00 in 97 W/m2
08:40 9.9 °F 5 °F 30.35 in SW 4 mph 4 mph 80% 0.00 in 107 W/m2
08:45 10 °F 5.1 °F 30.35 in West 4 mph 4 mph 80% 0.00 in 139 W/m2
08:50 10.3 °F 5.6 °F 30.35 in West 4 mph 4 mph 81% 0.00 in 186 W/m2
08:55 10.4 °F 5.7 °F 30.36 in SSW 3 mph 4 mph 81% 0.00 in 169 W/m2
09:00 10.5 °F 5.8 °F 30.36 in West 4 mph 8 mph 81% 0.00 in 137 W/m2
09:05 10.5 °F 5.5 °F 30.36 in SSW 5 mph 8 mph 80% 0.00 in 160 W/m2
09:10 10.6 °F 5.9 °F 30.36 in WSW 4 mph 8 mph 81% 0.00 in 176 W/m2
09:15 10.7 °F 6 °F 30.35 in WSW 4 mph 8 mph 81% 0.00 in 185 W/m2
09:20 10.7 °F 6 °F 30.36 in SW 3 mph 4 mph 81% 0.00 in 183 W/m2
09:25 10.7 °F 6 °F 30.36 in West 4 mph 4 mph 81% 0.00 in 158 W/m2
09:30 10.6 °F 5.9 °F 30.36 in West 4 mph 4 mph 81% 0.00 in 142 W/m2
09:35 10.6 °F 5.9 °F 30.35 in SW 4 mph 5 mph 81% 0.00 in 144 W/m2
09:40 10.6 °F 5.9 °F 30.35 in SW 4 mph 4 mph 81% 0.00 in 160 W/m2
09:45 10.8 °F 6.1 °F 30.36 in SW 4 mph 5 mph 81% 0.00 in 163 W/m2
09:50 10.7 °F 5.7 °F 30.35 in SW 4 mph 4 mph 80% 0.00 in 165 W/m2
09:55 10.8 °F 6.1 °F 30.35 in SW 4 mph 7 mph 81% 0.00 in 193 W/m2
10:00 10.9 °F 6.5 °F 30.35 in SW 5 mph 7 mph 82% 0.00 in 221 W/m2
10:05 11.1 °F 6.7 °F 30.36 in WSW 5 mph 9 mph 82% 0.00 in 163 W/m2
10:10 11 °F 6.3 °F 30.36 in SW 4 mph 4 mph 81% 0.00 in 155 W/m2
10:15 10.7 °F 6.3 °F 30.36 in SW 5 mph 8 mph 82% 0.00 in 223 W/m2
10:20 11 °F 6.6 °F 30.36 in SW 6 mph 7 mph 82% 0.00 in 316 W/m2
10:25 11.2 °F 6.8 °F 30.36 in WSW 7 mph 7 mph 82% 0.00 in 171 W/m2
10:30 11.5 °F 7.1 °F 30.36 in SW 5 mph 5 mph 82% 0.00 in 329 W/m2
10:35 11.7 °F 7 °F 30.36 in South 4 mph 5 mph 81% 0.00 in 364 W/m2
10:40 11.3 °F 6.3 °F 30.36 in SW 6 mph 6 mph 80% 0.00 in 151 W/m2
10:45 11.4 °F 6.7 °F 30.36 in SW 7 mph 7 mph 81% 0.00 in 438 W/m2
10:50 11.6 °F 6.6 °F 30.36 in SW 7 mph 7 mph 80% 0.00 in 313 W/m2
10:55 12.2 °F 7.2 °F 30.35 in SSW 5 mph 7 mph 80% 0.00 in 427 W/m2
11:00 12.6 °F 7.6 °F 30.35 in WSW 4 mph 4 mph 80% 0.00 in 341 W/m2
11:05 12.3 °F 7.3 °F 30.35 in SW 4 mph 7 mph 80% 0.00 in 308 W/m2
11:10 12 °F 7 °F 30.35 in WSW 5 mph 9 mph 80% 0.00 in 320 W/m2
11:15 11.8 °F 6.8 °F 30.35 in SSW 6 mph 9 mph 80% 0.00 in 274 W/m2
11:20 11.4 °F 6.2 °F 30.35 in SW 7 mph 7 mph 79% 0.00 in 230 W/m2
11:25 11.4 °F 6.4 °F 30.36 in SW 7 mph 7 mph 80% 0.00 in 229 W/m2
11:30 11.5 °F 6.5 °F 30.36 in SW 6 mph 6 mph 80% 0.00 in 258 W/m2
11:35 11.7 °F 6.7 °F 30.35 in SW 6 mph 6 mph 80% 0.00 in 334 W/m2
11:40 11.9 °F 6.6 °F 30.35 in SW 6 mph 6 mph 79% 0.00 in 302 W/m2
11:45 12.2 °F 6.9 °F 30.35 in WSW 6 mph 6 mph 79% 0.00 in 355 W/m2
11:50 12.1 °F 6.8 °F 30.35 in SW 5 mph 5 mph 79% 0.00 in 322 W/m2
11:55 12.6 °F 7.6 °F 30.35 in SW 4 mph 5 mph 80% 0.00 in 371 W/m2
12:00 12.8 °F 7.5 °F 30.35 in SSW 4 mph 5 mph 79% 0.00 in 304 W/m2
12:05 12.3 °F 7 °F 30.35 in SW 5 mph 6 mph 79% 0.00 in 269 W/m2
12:10 12.3 °F 7 °F 30.35 in SSW 5 mph 7 mph 79% 0.00 in 496 W/m2
12:15 13.3 °F 8 °F 30.35 in SW 5 mph 7 mph 79% 0.00 in 575 W/m2
12:20 13.4 °F 7.8 °F 30.35 in SSW 6 mph 6 mph 78% 0.00 in 624 W/m2
12:25 13.5 °F 7.6 °F 30.35 in SW 7 mph 7 mph 77% 0.00 in 584 W/m2
12:30 13.4 °F 7.5 °F 30.34 in SSW 7 mph 7 mph 77% 0.00 in 615 W/m2
12:35 13.6 °F 7.7 °F 30.34 in SSW 7 mph 7 mph 77% 0.00 in 589 W/m2
12:40 13.7 °F 8.1 °F 30.34 in SW 6 mph 7 mph 78% 0.00 in 582 W/m2
12:45 13.8 °F 8.2 °F 30.34 in WSW 6 mph 7 mph 78% 0.00 in 594 W/m2
12:50 14 °F 8.4 °F 30.33 in SSW 5 mph 5 mph 78% 0.00 in 554 W/m2
12:55 14 °F 8.1 °F 30.33 in SSW 4 mph 5 mph 77% 0.00 in 552 W/m2
13:00 14.1 °F 7.9 °F 30.33 in WSW 4 mph 4 mph 76% 0.00 in 554 W/m2
13:05 14.4 °F 8.5 °F 30.33 in SW 4 mph 5 mph 77% 0.00 in 550 W/m2
13:10 14.3 °F 8.1 °F 30.33 in SW 4 mph 4 mph 76% 0.00 in 550 W/m2
13:15 14.4 °F 8.5 °F 30.32 in WSW 4 mph 6 mph 77% 0.00 in 550 W/m2
13:20 14.5 °F 8.3 °F 30.32 in SW 5 mph 6 mph 76% 0.00 in 541 W/m2
13:25 14.4 °F 8.2 °F 30.32 in WSW 5 mph 6 mph 76% 0.00 in 547 W/m2
13:30 14.8 °F 8.3 °F 30.31 in SW 4 mph 4 mph 75% 0.00 in 543 W/m2
13:35 14.6 °F 8.1 °F 30.31 in SW 4 mph 4 mph 75% 0.00 in 466 W/m2
13:40 14.6 °F 8.1 °F 30.31 in SW 5 mph 7 mph 75% 0.00 in 425 W/m2
13:45 14.4 °F 7.6 °F 30.31 in SSW 6 mph 8 mph 74% 0.00 in 536 W/m2
13:50 14.3 °F 8.1 °F 30.31 in SW 7 mph 8 mph 76% 0.00 in 473 W/m2
13:55 14.4 °F 8.2 °F 30.31 in SW 7 mph 8 mph 76% 0.00 in 531 W/m2
14:00 14.4 °F 7.6 °F 30.30 in SW 7 mph 8 mph 74% 0.00 in 524 W/m2
14:05 14.4 °F 7.9 °F 30.31 in SSW 8 mph 8 mph 75% 0.00 in 519 W/m2
14:10 14.3 °F 7.5 °F 30.30 in SW 8 mph 8 mph 74% 0.00 in 506 W/m2
14:15 14.6 °F 8.1 °F 30.30 in SW 7 mph 8 mph 75% 0.00 in 482 W/m2
14:20 14.6 °F 7.8 °F 30.29 in SW 7 mph 7 mph 74% 0.00 in 411 W/m2
14:25 14.9 °F 8.4 °F 30.29 in SW 6 mph 7 mph 75% 0.00 in 466 W/m2
14:30 14.9 °F 8.1 °F 30.29 in SW 6 mph 7 mph 74% 0.00 in 334 W/m2
14:35 14.7 °F 7.6 °F 30.28 in SW 7 mph 8 mph 73% 0.00 in 355 W/m2
14:40 14.6 °F 7.8 °F 30.28 in SSW 7 mph 9 mph 74% 0.00 in 213 W/m2
14:45 14.6 °F 7.5 °F 30.28 in SSW 7 mph 9 mph 73% 0.00 in 432 W/m2
14:50 15.1 °F 8 °F 30.28 in SSW 7 mph 7 mph 73% 0.00 in 461 W/m2
14:55 15.4 °F 8.3 °F 30.28 in SW 5 mph 7 mph 73% 0.00 in 404 W/m2
15:00 15.7 °F 8.9 °F 30.29 in SW 4 mph 4 mph 74% 0.00 in 434 W/m2
15:05 15.8 °F 8.7 °F 30.29 in WSW 4 mph 8 mph 73% 0.00 in 429 W/m2
15:10 15.9 °F 8.8 °F 30.29 in SW 5 mph 5 mph 73% 0.00 in 427 W/m2
15:15 16.1 °F 8.7 °F 30.30 in SW 5 mph 5 mph 72% 0.00 in 418 W/m2
15:20 15.7 °F 8 °F 30.30 in SW 6 mph 6 mph 71% 0.00 in 239 W/m2
15:25 15.8 °F 8.7 °F 30.29 in SW 6 mph 6 mph 73% 0.00 in 220 W/m2
15:30 16.1 °F 9.3 °F 30.29 in SW 6 mph 6 mph 74% 0.00 in 357 W/m2
15:35 15.3 °F 8.5 °F 30.29 in South 5 mph 6 mph 74% 0.00 in 130 W/m2
15:40 15.3 °F 8.8 °F 30.30 in WSW 4 mph 4 mph 75% 0.00 in 199 W/m2
15:45 15.5 °F 9.3 °F 30.30 in NE 4 mph 4 mph 76% 0.00 in 239 W/m2
15:50 15.7 °F 9.2 °F 30.30 in SW 4 mph 8 mph 75% 0.00 in 290 W/m2
15:55 15.7 °F 8.6 °F 30.31 in SSW 7 mph 8 mph 73% 0.00 in 144 W/m2
16:00 15.4 °F 8.3 °F 30.31 in SSW 8 mph 8 mph 73% 0.00 in 179 W/m2
16:05 15.5 °F 8.7 °F 30.31 in SW 8 mph 9 mph 74% 0.00 in 178 W/m2
16:10 15.7 °F 8.9 °F 30.31 in SSW 8 mph 8 mph 74% 0.00 in 229 W/m2
16:15 15.9 °F 9.4 °F 30.31 in SW 7 mph 8 mph 75% 0.00 in 202 W/m2
16:20 15.9 °F 9.1 °F 30.31 in SSW 7 mph 7 mph 74% 0.00 in 148 W/m2
16:25 15.7 °F 8.6 °F 30.31 in SSW 7 mph 10 mph 73% 0.00 in 162 W/m2
16:30 15.7 °F 8.9 °F 30.31 in SSW 7 mph 8 mph 74% 0.00 in 127 W/m2
16:35 15.6 °F 9.1 °F 30.31 in SW 7 mph 8 mph 75% 0.00 in 125 W/m2
16:40 15.6 °F 8.8 °F 30.30 in SSW 7 mph 7 mph 74% 0.00 in 118 W/m2
16:45 15.6 °F 8.8 °F 30.30 in South 7 mph 7 mph 74% 0.00 in 113 W/m2
16:50 15.5 °F 8.7 °F 30.30 in SSW 8 mph 9 mph 74% 0.00 in 113 W/m2
16:55 15.4 °F 8.6 °F 30.30 in SW 8 mph 9 mph 74% 0.00 in 83 W/m2
17:00 15.3 °F 8.5 °F 30.30 in SW 8 mph 8 mph 74% 0.00 in 69 W/m2
17:05 15.2 °F 8.7 °F 30.29 in South 7 mph 8 mph 75% 0.00 in 62 W/m2
17:10 15.2 °F 8.4 °F 30.29 in SSW 5 mph 5 mph 74% 0.00 in 58 W/m2
17:15 15.2 °F 8.7 °F 30.29 in SSW 6 mph 8 mph 75% 0.00 in 44 W/m2
17:20 15.3 °F 8.8 °F 30.30 in SSW 6 mph 6 mph 75% 0.00 in 39 W/m2
17:25 15.3 °F 8.8 °F 30.30 in South 6 mph 7 mph 75% 0.00 in 39 W/m2
17:30 15.4 °F 8.9 °F 30.30 in SSW 7 mph 7 mph 75% 0.00 in 21 W/m2
17:35 15.3 °F 8.8 °F 30.29 in SSW 6 mph 7 mph 75% 0.00 in 18 W/m2
17:40 15.1 °F 8.9 °F 30.29 in SW 5 mph 5 mph 76% 0.00 in 12 W/m2
17:45 14.8 °F 8.9 °F 30.29 in South 3 mph 6 mph 77% 0.00 in 7 W/m2
17:50 14.9 °F 8.7 °F 30.29 in SSW 3 mph 3 mph 76% 0.00 in 5 W/m2
17:55 14.6 °F 9 °F 30.29 in South 3 mph 3 mph 78% 0.00 in 0 W/m2
18:00 14.5 °F 8.9 °F 30.29 in SW 2 mph 2 mph 78% 0.00 in 0 W/m2
18:05 14.3 °F 8.4 °F 30.29 in SSW 3 mph 3 mph 77% 0.00 in 0 W/m2
18:10 14 °F 8.4 °F 30.29 in SW 2 mph 4 mph 78% 0.00 in 0 W/m2
18:15 13.8 °F 8.2 °F 30.29 in SSW 3 mph 4 mph 78% 0.00 in 0 W/m2
18:20 13.8 °F 8.2 °F 30.29 in SSW 4 mph 5 mph 78% 0.00 in 0 W/m2
18:25 13.8 °F 7.9 °F 30.29 in SSW 4 mph 5 mph 77% 0.00 in 0 W/m2
18:30 13.8 °F 7.9 °F 30.29 in SSW 3 mph 3 mph 77% 0.00 in 0 W/m2
18:35 13.8 °F 8.2 °F 30.30 in SSW 3 mph 3 mph 78% 0.00 in 0 W/m2
18:40 13.9 °F 8.3 °F 30.30 in South 3 mph 3 mph 78% 0.00 in 0 W/m2
18:45 14 °F 8.4 °F 30.30 in SSW 3 mph 3 mph 78% 0.00 in 0 W/m2
18:50 14.1 °F 8.5 °F 30.30 in SSW 3 mph 5 mph 78% 0.00 in 0 W/m2
18:55 14.3 °F 8.4 °F 30.30 in South 4 mph 5 mph 77% 0.00 in 0 W/m2
19:00 14.4 °F 8.5 °F 30.30 in SW 5 mph 5 mph 77% 0.00 in 0 W/m2
19:05 14.4 °F 8.5 °F 30.30 in SSW 4 mph 5 mph 77% 0.00 in 0 W/m2
19:10 14.3 °F 8.7 °F 30.30 in South 2 mph 2 mph 78% 0.00 in 0 W/m2
19:15 14.2 °F 8.9 °F 30.29 in SSW 2 mph 2 mph 79% 0.00 in 0 W/m2
19:20 14.3 °F 9 °F 30.30 in South 1 mph 2 mph 79% 0.00 in 0 W/m2
19:25 14.6 °F 9.6 °F 30.30 in SW 1 mph 3 mph 80% 0.00 in 0 W/m2
19:30 14.9 °F 9.3 °F 30.30 in SSW 3 mph 3 mph 78% 0.00 in 0 W/m2
19:35 15.1 °F 9.2 °F 30.29 in WSW 3 mph 3 mph 77% 0.00 in 0 W/m2
19:40 15.3 °F 9.4 °F 30.29 in SSW 3 mph 4 mph 77% 0.00 in 0 W/m2
19:45 15.4 °F 9.5 °F 30.30 in SW 3 mph 4 mph 77% 0.00 in 0 W/m2
19:50 15.4 °F 9.5 °F 30.30 in SSW 3 mph 5 mph 77% 0.00 in 0 W/m2
19:55 15.5 °F 9.6 °F 30.30 in SSW 3 mph 5 mph 77% 0.00 in 0 W/m2
20:00 15.5 °F 9.6 °F 30.30 in SSW 4 mph 5 mph 77% 0.00 in 0 W/m2
20:05 15.6 °F 9.4 °F 30.30 in SW 5 mph 6 mph 76% 0.00 in 0 W/m2
20:10 15.7 °F 9.5 °F 30.30 in SSW 5 mph 6 mph 76% 0.00 in 0 W/m2
20:15 15.7 °F 9.8 °F 30.31 in SW 5 mph 6 mph 77% 0.00 in 0 W/m2
20:20 15.7 °F 9.5 °F 30.30 in SW 5 mph 5 mph 76% 0.00 in 0 W/m2
20:25 15.8 °F 9.6 °F 30.30 in SW 5 mph 6 mph 76% 0.00 in 0 W/m2
20:30 15.8 °F 9.9 °F 30.30 in SW 5 mph 5 mph 77% 0.00 in 0 W/m2
20:35 15.7 °F 9.8 °F 30.30 in SSW 5 mph 5 mph 77% 0.00 in 0 W/m2
20:40 15.6 °F 9.7 °F 30.30 in SSW 5 mph 5 mph 77% 0.00 in 0 W/m2
20:45 15.4 °F 9.8 °F 30.30 in South 5 mph 5 mph 78% 0.00 in 0 W/m2
20:50 15.4 °F 9.8 °F 30.30 in SSW 4 mph 4 mph 78% 0.00 in 0 W/m2
20:55 15.1 °F 9.8 °F 30.30 in SSE 3 mph 4 mph 79% 0.00 in 0 W/m2
21:00 15 °F 9.9 °F 30.30 in SSW 2 mph 2 mph 80% 0.00 in 0 W/m2
21:05 15 °F 10.2 °F 30.30 in WNW 2 mph 2 mph 81% 0.00 in 0 W/m2
21:10 15 °F 10.2 °F 30.30 in SSW 1 mph 1 mph 81% 0.00 in 0 W/m2
21:15 15 °F 10.2 °F 30.30 in SW 1 mph 2 mph 81% 0.00 in 0 W/m2
21:20 15.1 °F 10.3 °F 30.30 in South 2 mph 2 mph 81% 0.00 in 0 W/m2
21:25 15.1 °F 10.3 °F 30.30 in SW 2 mph 4 mph 81% 0.00 in 0 W/m2
21:30 15.2 °F 10.4 °F 30.30 in SW 4 mph 4 mph 81% 0.00 in 0 W/m2
21:35 15.2 °F 10.4 °F 30.31 in SW 4 mph 5 mph 81% 0.00 in 0 W/m2
21:40 15.3 °F 10.5 °F 30.30 in SW 4 mph 4 mph 81% 0.00 in 0 W/m2
21:45 15.4 °F 10.6 °F 30.29 in SW 3 mph 4 mph 81% 0.00 in 0 W/m2
21:50 15.4 °F 10.9 °F 30.29 in SSW 3 mph 4 mph 82% 0.00 in 0 W/m2
21:55 15.2 °F 10.7 °F 30.29 in SW 3 mph 4 mph 82% 0.00 in 0 W/m2
22:00 15.1 °F 10.9 °F 30.29 in SW 3 mph 3 mph 83% 0.00 in 0 W/m2
22:05 14.9 °F 10.7 °F 30.29 in SW 4 mph 4 mph 83% 0.00 in 0 W/m2
22:10 14.9 °F 10.7 °F 30.29 in SW 4 mph 4 mph 83% 0.00 in 0 W/m2
22:15 14.8 °F 10.6 °F 30.30 in SW 3 mph 4 mph 83% 0.00 in 0 W/m2
22:20 14.6 °F 10.4 °F 30.29 in SW 2 mph 2 mph 83% 0.00 in 0 W/m2
22:25 14.6 °F 10.4 °F 30.29 in SSW 3 mph 3 mph 83% 0.00 in 0 W/m2
22:30 14.5 °F 10.3 °F 30.29 in SSW 3 mph 3 mph 83% 0.00 in 0 W/m2
22:35 14.3 °F 10.4 °F 30.29 in SSW 2 mph 3 mph 84% 0.00 in 0 W/m2
22:40 14.2 °F 10.3 °F 30.29 in SSW 2 mph 2 mph 84% 0.00 in 0 W/m2
22:45 14.1 °F 10.2 °F 30.30 in South 1 mph 2 mph 84% 0.00 in 0 W/m2
22:50 14.2 °F 10.3 °F 30.30 in South 1 mph 2 mph 84% 0.00 in 0 W/m2
22:55 14.3 °F 10.4 °F 30.29 in South 2 mph 2 mph 84% 0.00 in 0 W/m2
23:00 14.3 °F 10.6 °F 30.30 in SSE 1 mph 1 mph 85% 0.00 in 0 W/m2
23:05 14.3 °F 10.6 °F 30.29 in SSW 1 mph 1 mph 85% 0.00 in 0 W/m2
23:10 14.2 °F 10.5 °F 30.30 in SSW 1 mph 1 mph 85% 0.00 in 0 W/m2
23:15 14.2 °F 10.5 °F 30.29 in SW 1 mph 1 mph 85% 0.00 in 0 W/m2
23:20 14.1 °F 10.4 °F 30.29 in SW 1 mph 1 mph 85% 0.00 in 0 W/m2
23:25 14 °F 10.3 °F 30.29 in WSW 1 mph 1 mph 85% 0.00 in 0 W/m2
23:30 14 °F 10.3 °F 30.30 in WSW 1 mph 1 mph 85% 0.00 in 0 W/m2
23:35 14 °F 10.6 °F 30.30 in WSW 1 mph 1 mph 86% 0.00 in 0 W/m2
23:40 13.8 °F 10.1 °F 30.30 in WSW 1 mph 1 mph 85% 0.00 in 0 W/m2
23:45 13.8 °F 10.1 °F 30.30 in WSW 1 mph 1 mph 85% 0.00 in 0 W/m2
23:50 13.8 °F 10.1 °F 30.29 in WSW 1 mph 1 mph 85% 0.00 in 0 W/m2
23:55 13.9 °F 10.2 °F 30.29 in Calm   1 mph 85% 0.00 in 0 W/m2
Sand Point, Michigan, USA
Compliments of Weather Underground - 2 mb